HIMAWARI-7 (MTSAT-2)

Last updated on Wed May 20 2020 05:09:29 GMT+0000 (Coordinated Universal Time)

1 28937U 06004A 20140.78494914 -.00000269 00000-0 00000+0 0 9999 2 28937 0.1472 55.1914 0001466 48.8841 190.4578 0.99090548 52094
UTC large
Height (km)
Speed (km/s)
/
Latitude / Longitude
Inclination (degrees)
Orbital Period (minutes)
Azimuth
Elevation
Range (km)
Doppler Factor

Next 0 passes for location: London (51.5072 / 0.1276)

Sorry there are no passes over London.